INMARSAT 5-F1

导读

INMARSAT 5-F1是国际移动卫星组织第五代移动通信卫星系列的首发星,于2013年12月8日发射。该卫星属于"国际移动通信卫星"5号系列,定点在静止轨道,主要覆盖欧洲、中东、非洲和亚洲区域,与后续组网卫星共同实现南北纬76°之间的全球无缝覆盖。它可为航海、航空以及各类用户提供高速移动宽带通信、高清视频通信等服务,2015年随着系列卫星组网正式投入商业运营,支撑全球移动通信稳定运行。

基本信息
目录编号:
39476
目录名称:
INMARSAT 5-F1
国际标识:
2013-073A
轨道中心:
EARTH
卫星名称:
INMARSAT 5-F1
卫星全名:
--
卫星状态:
在轨 (已飞行4660 天)
发射日期:
2013-12-08 UTC
国别 :
(Inmarsat)
星等 :
--
该卫星已列入 空间交会检测服务 Space Conjunction Data Service (SCDS) ,当前飞行风险评估等级: 无高风险
轨道信息
数据来源 国际轨道数据
星历时间: 2026-09-10T22:46:42+0800
15小时前
查看轨道信息
半长轴: 42164.56km
偏心率: 0.0000307
轨道倾角: 0.021°
近地点辐角 42.616°
升交点赤经 134.731°
平近点角 96.617°
近地点: 35785.128km
远地点: 35787.718km
周期: 1436.088分钟
每日圈数: 1.002724
详细信息
使用方式:
暂无
2D轨道图
3D轨道图
轨道高度分析图
轨道倾角分析图
轨道综合分析图
查看轨道综合分析图
与全量物体交会距离演化趋势
与全量物体交会风险概率演化趋势